DW1894 Briancon FR current weather conditions

sailwx.info

Wind from 217

Air temperature 7.8° C
Dewpoint -4.3° C

Last reported at 2020-Feb-28 13:01 UTC.
Time now 2020-Feb-28 14:02 UTC

Location: N 44°32' E 006°03'.
View on Google Maps.

See reports from other nearby stations

  
Tides and Currents Weather Stations Pressure Air Temp Water Temp Dewpoint Dewpoint Depression Visibility Wind Speed Wind Dir Waves Ship Positions
date/time (UTC)wind fromknots sea level pressurealtimeterstation pressurevisibilityair tempwater tempwave heightnotes
2020-Feb-28 13:01 217 7.8
2020-Feb-28 12:51 217 7.8
2020-Feb-28 12:46 217 7.2
2020-Feb-28 12:40 217 7.2
2020-Feb-28 12:30 217 6.7
2020-Feb-28 12:21 217 0 6.1
2020-Feb-28 12:17 217 1 5.6
2020-Feb-28 12:10 219 1 6.1
2020-Feb-28 12:00 234 6.7
2020-Feb-28 11:50 240 6.7
2020-Feb-28 11:45 250 6.7
2020-Feb-28 11:31 250 6.7
2020-Feb-28 11:17 250 6.1
2020-Feb-28 11:01 250 6.1
2020-Feb-28 10:46 250 6.7
2020-Feb-28 10:31 250 5.0
2020-Feb-28 10:15 250 4.4
2020-Feb-28 10:01 250 4.4
2020-Feb-28 09:46 250 3.9
2020-Feb-28 09:31 284 3.9
2020-Feb-28 09:16 284 3.9
2020-Feb-28 09:01 284 3.3
2020-Feb-28 08:46 284 2.2
2020-Feb-28 08:31 284 1.7
2020-Feb-28 08:15 284 0.6
2020-Feb-28 08:00 284 -0.0
2020-Feb-28 07:45 288 0.6
2020-Feb-28 07:31 288 -0.6
2020-Feb-28 07:15 288 -1.7
2020-Feb-28 07:00 288 -2.2
2020-Feb-28 06:45 288 -2.8
2020-Feb-28 06:30 288 -2.2
2020-Feb-28 06:15 288 -2.2
2020-Feb-28 06:01 288 -2.2
2020-Feb-28 05:30 288 -2.2
2020-Feb-28 05:15 288 -2.2
2020-Feb-28 05:00 288 -1.7
2020-Feb-28 04:45 288 -1.7
2020-Feb-28 04:30 288 -1.7
2020-Feb-28 04:15 287 0 -1.1
2020-Feb-28 04:00 288 -1.7
2020-Feb-28 03:45 288 -1.1
2020-Feb-28 03:33 287 -0.6
2020-Feb-28 03:16 287 -0.6
2020-Feb-28 03:01 287 -0.0
2020-Feb-28 02:46 287 0.6
2020-Feb-28 02:31 287 1.1
2020-Feb-28 02:15 286 0 1.1
2020-Feb-28 02:01 286 0 2.2
2020-Feb-28 01:46 242 1 2.8
2020-Feb-28 01:31 178 2 3.9
2020-Feb-28 01:15 167 2 3.9
2020-Feb-28 01:00 161 1 3.9
2020-Feb-28 00:45 090 2 3.3
2020-Feb-28 00:31 103 2 3.3
2020-Feb-28 00:15 145 1 4.4
2020-Feb-28 00:00 263 3 4.4
2020-Feb-27 23:45 302 8 4.4
2020-Feb-27 23:30 116 5 4.4
2020-Feb-27 23:15 153 4 5.0
2020-Feb-27 23:00 335 7 5.0
2020-Feb-27 22:45 182 6 5.0
2020-Feb-27 22:30 119 6 5.0
2020-Feb-27 22:15 153 1 4.4
2020-Feb-27 22:00 155 2 2.2
2020-Feb-27 21:48 151 1.7
2020-Feb-27 21:32 166 1.1
2020-Feb-27 21:20 181 1.7
2020-Feb-27 21:15 296 1.1
2020-Feb-27 21:11 325 0.6
2020-Feb-27 21:00 305 -0.0
2020-Feb-27 20:51 305 -0.0
2020-Feb-27 20:48 305 -0.0
2020-Feb-27 20:40 305 -0.0
2020-Feb-27 20:31 305 -0.0
2020-Feb-27 20:20 305 -0.0
2020-Feb-27 20:15 305 -0.6
2020-Feb-27 20:11 305 -0.0
2020-Feb-27 20:00 305 -0.0
2020-Feb-27 19:50 305 -0.0
2020-Feb-27 19:46 305 -0.6
2020-Feb-27 19:40 305 -0.0
2020-Feb-27 19:30 305 -0.0
2020-Feb-27 19:20 305 -0.0
2020-Feb-27 19:16 305 -0.6
2020-Feb-27 19:11 305 -0.0
2020-Feb-27 19:00 305 -0.6
2020-Feb-27 18:50 305 -0.6
2020-Feb-27 18:47 305 -0.6
2020-Feb-27 18:40 305 -0.6
2020-Feb-27 18:31 305 -0.6
2020-Feb-27 18:21 305 -0.6
2020-Feb-27 18:15 305 -1.1
2020-Feb-27 18:11 305 -0.6
2020-Feb-27 18:01 305 -0.6
2020-Feb-27 17:51 305 -0.6
2020-Feb-27 17:46 305 -1.1
2020-Feb-27 17:41 305 -0.6
2020-Feb-27 17:30 305 -0.6
2020-Feb-27 17:15 305 -1.1
2020-Feb-27 17:00 305 -1.1
2020-Feb-27 16:51 305 -0.6
2020-Feb-27 16:45 305 -0.6
2020-Feb-27 16:30 305 -0.6
2020-Feb-27 16:16 305 -0.6
2020-Feb-27 16:02 305 -0.6
2020-Feb-27 15:46 305 -0.6
2020-Feb-27 15:32 305 -0.6
2020-Feb-27 15:17 305 -0.6
2020-Feb-27 15:02 305 -0.6
2020-Feb-27 14:46 305 -0.6
2020-Feb-27 14:31 305 -0.6
2020-Feb-27 14:16 305 -0.6
2020-Feb-27 14:01 305 -0.6
2020-Feb-27 13:50 305 -0.6
2020-Feb-27 13:46 305 -0.6
2020-Feb-27 13:40 305 -0.6
2020-Feb-27 13:30 305 -0.6
2020-Feb-27 13:21 305 -0.6
2020-Feb-27 13:16 305 -0.6
2020-Feb-27 13:10 305 -0.6
2020-Feb-27 13:00 305 -0.6
2020-Feb-27 12:51 305 -0.6
2020-Feb-27 12:46 305 -1.1
2020-Feb-27 12:40 305 -0.6
2020-Feb-27 12:30 305 -0.6
2020-Feb-27 12:21 305 -0.6
2020-Feb-27 12:15 305 -0.6
2020-Feb-27 12:00 305 -0.6
2020-Feb-27 11:45 305 -1.1
2020-Feb-27 11:30 305 -1.1
2020-Feb-27 11:15 305 -1.1
2020-Feb-27 11:00 305 -1.1
2020-Feb-27 10:45 305 -1.1
2020-Feb-27 10:30 305 -0.6
2020-Feb-27 10:15 305 -0.6
2020-Feb-27 10:00 305 -0.6
2020-Feb-27 09:45 305 -0.6
2020-Feb-27 09:32 305 -0.6
2020-Feb-27 09:17 305 -1.1
2020-Feb-27 09:01 305 -0.6
2020-Feb-27 08:47 305 -1.1
2020-Feb-27 08:32 305 -1.1
2020-Feb-27 08:17 305 -1.7
2020-Feb-27 08:01 305 -1.7
2020-Feb-27 07:46 305 -1.7
2020-Feb-27 07:31 305 -2.2
2020-Feb-27 07:16 305 -2.8
2020-Feb-27 07:02 305 -2.8
2020-Feb-27 06:46 305 -3.3
2020-Feb-27 06:31 305 -3.9
2020-Feb-27 06:16 305 -3.9
2020-Feb-27 06:02 305 -3.9
2020-Feb-27 05:46 305 -3.9
2020-Feb-27 05:32 305 -3.9
2020-Feb-27 05:17 305 -3.9
2020-Feb-27 05:01 305 -3.9
2020-Feb-27 04:46 305 -3.3
2020-Feb-27 04:30 305 -3.3
2020-Feb-27 04:16 305 -3.3
2020-Feb-27 04:01 305 -3.3
2020-Feb-27 03:45 305 -3.3
2020-Feb-27 03:31 305 -3.3
2020-Feb-27 03:16 305 -2.8
2020-Feb-27 03:00 305 -2.8
2020-Feb-27 02:46 305 -2.8
2020-Feb-27 02:31 305 -2.8
2020-Feb-27 02:16 305 -2.8
2020-Feb-27 02:01 305 -2.8
2020-Feb-27 01:45 305 -2.2
2020-Feb-27 01:30 304 -2.2
2020-Feb-27 01:15 304 -1.7
2020-Feb-27 01:00 304 -1.7
2020-Feb-27 00:45 304 -0.6
2020-Feb-27 00:30 304 -0.6
2020-Feb-27 00:15 152 -0.6
2020-Feb-27 00:00 156 -0.6
2020-Feb-26 23:45 156 -0.6
2020-Feb-26 23:30 156 -0.6
2020-Feb-26 23:15 156 -0.0
2020-Feb-26 23:00 158 2 -0.0
2020-Feb-26 22:45 171 0 -0.0
2020-Feb-26 22:30 161 2 -0.0
2020-Feb-26 22:15 173 4 -0.0
2020-Feb-26 22:02 134 3 -0.0
2020-Feb-26 21:47 169 3 -0.0
2020-Feb-26 21:30 176 2 -0.0
2020-Feb-26 21:20 169 2 -0.0
2020-Feb-26 21:16 167 2 -0.6
2020-Feb-26 21:10 175 2 -0.0
2020-Feb-26 21:00 159 2 -0.6
2020-Feb-26 20:50 156 1 -0.6
2020-Feb-26 20:46 209 1 -0.6
2020-Feb-26 20:40 153 1 -0.6
2020-Feb-26 20:30 138 3 -0.6
2020-Feb-26 20:20 156 1 -0.0
2020-Feb-26 20:17 140 0 -0.6
2020-Feb-26 20:10 178 0 -0.6
2020-Feb-26 20:00 171 2 -0.6
2020-Feb-26 19:50 164 1 -0.6
2020-Feb-26 19:45 186 0 -1.1
2020-Feb-26 19:41 191 1 -0.6
2020-Feb-26 19:31 175 2 -0.6
2020-Feb-26 19:30 174 2 -1.1
2020-Feb-26 19:21 157 -0.6
2020-Feb-26 19:15 159 -0.6
2020-Feb-26 19:11 159 -0.6
2020-Feb-26 19:01 159 -0.6
2020-Feb-26 19:00 159 -1.1
2020-Feb-26 18:51 159 -0.6
2020-Feb-26 18:45 159 0 -1.1
2020-Feb-26 18:30 159 1 -0.6
2020-Feb-26 18:21 157 0 -0.6
2020-Feb-26 18:16 155 0 -0.6
2020-Feb-26 18:00 188 0 -0.6
2020-Feb-26 17:45 146 -0.6
2020-Feb-26 17:30 146 0 -0.6
2020-Feb-26 17:15 185 0 -0.6
2020-Feb-26 17:01 186 0 -0.6
2020-Feb-26 16:45 186 -0.6
2020-Feb-26 16:30 188 0 -0.6
2020-Feb-26 16:16 120 -0.6
2020-Feb-26 16:00 120 -0.6
2020-Feb-26 15:45 120 -0.6
2020-Feb-26 15:30 120 -0.6
2020-Feb-26 15:15 161 -0.6
2020-Feb-26 15:00 159 -0.6
2020-Feb-26 14:45 159 2 -0.6
2020-Feb-26 14:30 170 0 -0.6
2020-Feb-26 14:15 171 -0.6
2020-Feb-26 14:00 171 -0.6